Weather History for KLAR - December, 2012

Change the Weather History Date:

Saturday, December 1, 2012

  Actual Average Record
Temperature  
Mean Temperature 43 °F 23 °F  
Max Temperature 52 °F 34 °F 59 °F (1998)
Min Temperature 33 °F 12 °F -19 °F (1991)
Degree Days  
Heating Degree Days 22 42  
Month to date heating degree days 22 42  
Since 1 July heating degree days 1889 2354  
Cooling Degree Days 0 0  
Month to date cooling degree days 0 0  
Year to date cooling degree days 211 67  
Moisture  
Dew Point 23 °F    
Average Humidity 46    
Maximum Humidity 60    
Minimum Humidity 32    
Precipitation  
Precipitation 0.00 in 0.01 in 0.46 in (1967)
Month to date precipitation 0.00 0.01  
Year to date precipitation 6.06 10.61  
Sea Level Pressure  
Sea Level Pressure 29.86 in    
Wind  
Wind Speed 16 mph (WSW)    
Max Wind Speed 40 mph    
Max Gust Speed 48 mph    
Visibility 10 miles    
Events      
T = Trace of Precipitation, MM = Missing Value Source: NWS Daily Summary

Daily Weather History Graph

Daily Weather History Graph

Search for Another Location

Airport or City:

Trip Planner

Search our weather history database for the weather conditions in past years. The results will help you decide how hot, cold, wet, or windy it might be!

Date:

Astronomy

Dec. 01, 2012 Rise Set
Actual Time 7:09 AM MST 4:34 PM MST
Civil Twilight 6:38 AM MST 5:04 PM MST
Nautical Twilight 6:04 AM MST 5:39 PM MST
Astronomical Twilight 5:31 AM MST 6:12 PM MST
Moon 7:27 PM MST (12/1) 9:23 AM MST (12/1)
Length of Visible Light 10h 25m
Length of Day
9h 24m
Waning Gibbous, 91% of the Moon is Illuminated
Dec 1
Waning Gibbous
Dec 6
Last Quarter
Dec 13
New
Dec 19
First Quarter
Dec 28
Full

Hourly Weather History & Observations

Time (MST) Temp. Windchill Dew Point Humidity Pressure Visibility Wind Dir Wind Speed Gust Speed Precip Events Conditions
12:53 AM 39.9 °F 35.1 °F 21.9 °F 49% 29.74 in 10.0 mi SSW 6.9 mph - N/A   Scattered Clouds
1:53 AM 43.0 °F 38.8 °F 24.1 °F 47% 29.75 in 10.0 mi SSW 6.9 mph - N/A   Overcast
2:53 AM 42.1 °F 37.7 °F 28.0 °F 58% 29.76 in 10.0 mi SSW 6.9 mph 24.2 mph N/A   Overcast
3:42 AM 41.0 °F 31.9 °F 26.6 °F 57% 29.93 in 10.0 mi WSW 19.6 mph - N/A   Scattered Clouds
6:53 AM 41.0 °F 36.4 °F 28.0 °F 60% 29.86 in 10.0 mi SW 6.9 mph - N/A   Scattered Clouds
8:53 AM 45.0 °F 36.0 °F 28.9 °F 53% 29.83 in 10.0 mi WSW 25.3 mph 38.0 mph N/A   Partly Cloudy
9:53 AM 46.9 °F - 28.0 °F 48% 29.84 in 10.0 mi West 29.9 mph 40.3 mph N/A   Clear
10:53 AM 46.9 °F - 26.1 °F 44% 29.86 in 10.0 mi West 32.2 mph 41.4 mph N/A   Partly Cloudy
12:53 PM 52.0 °F - 25.0 °F 35% 29.82 in 10.0 mi West 27.6 mph 36.8 mph N/A   Clear
1:53 PM 48.9 °F - 24.1 °F 38% 29.81 in 10.0 mi WSW 24.2 mph 34.5 mph N/A   Clear
2:53 PM 50.0 °F - 21.9 °F 33% 29.83 in 10.0 mi WSW 20.7 mph 25.3 mph N/A   Clear
3:53 PM 48.0 °F - 21.0 °F 34% 29.87 in 10.0 mi West 13.8 mph 19.6 mph N/A   Overcast
4:53 PM 43.0 °F 38.2 °F 19.9 °F 40% 29.92 in 10.0 mi West 8.1 mph - N/A   Partly Cloudy
5:53 PM 39.0 °F 32.3 °F 19.0 °F 45% 29.94 in 10.0 mi WSW 10.4 mph - N/A   Clear
6:53 PM 37.9 °F 33.5 °F 19.0 °F 47% 29.95 in 10.0 mi SW 5.8 mph - N/A   Clear
7:53 PM 37.0 °F 28.5 °F 18.0 °F 46% 29.96 in 10.0 mi WSW 13.8 mph - N/A   Clear
8:53 PM 34.0 °F 25.0 °F 18.0 °F 52% 29.94 in 10.0 mi WSW 12.7 mph - N/A   Clear
9:53 PM 39.9 °F 30.0 °F 21.9 °F 49% 29.89 in 10.0 mi SW 21.9 mph - N/A   Clear
10:53 PM 39.9 °F 30.8 °F 21.9 °F 49% 29.88 in 10.0 mi WSW 18.4 mph - N/A   Clear
11:53 PM 37.9 °F 30.0 °F 21.0 °F 51% 29.89 in 10.0 mi West 12.7 mph - N/A   Clear